User: anonymous   Login
Location: Unspecified
(51.2667°N, 0.0000°E)
Time: 04:40:34
(UTC+00:00)
Language:

ISS - Orbit

View from above orbital plane
View from above orbital plane
View from above satellite
View from above satellite

Ground track
Ground track

The orbit data is extracted from the following two-line orbital elements,

1 25544U 98067A   19234.21210780  .00016717  00000-0  10270-3 0  9030
2 25544  51.6423  33.7288 0007592 313.9735  46.0789 15.50379699 25496
Epoch (UTC): 22 August 2019 05:05:26
Eccentricity: 0.0007592
inclination: 51.6423°
perigee height: 410 km
apogee height: 421 km
right ascension of ascending node: 33.7288°
argument of perigee: 313.9735°
revolutions per day: 15.50379699
mean anomaly at epoch: 46.0789°
orbit number at epoch: 2549

The dashed part of the orbit path shows where the satellite is in the earth's shadow,  

DLR